Home > Weather > Aliso Viejo > Past weeks

Flag for USA Weather for the Past 2 Weeks in Aliso Viejo, California, USA

Now
58 °F

Clear.


Feels Like: 58 °F
Forecast: 56 / 66 °F
Wind: 5 mph from Southwest

Location: John Wayne Airport-Orange County Airport

Current Time: May 4, 2016 at 1:41:44 AM

Latest Report: May 4, 2016 at 12:53 AM


Visibility: 10 mi

Pressure: 29.96 "Hg

Humidity: 87%

Dew Point: 54 °F

Location of Aliso ViejoLocation

Historic Weather in Aliso Viejo — Graph

°F

Aliso Viejo Temperature Yesterday

Maximum temperature yesterday: 73 °F (at 1:53 PM)
Minimum temperature yesterday: 58 °F (at 3:53 AM)
Average temperature yesterday: 63 °F

High & Low Weather Summary for the Past Weeks

 TemperatureHumidityPressure
High84 °F (Apr 19, 2:53 PM)93% (Apr 30, 5:53 AM)30.04 "Hg (Apr 30, 5:53 AM)
Low52 °F (Apr 26, 4:53 AM)13% (Apr 20, 3:53 PM)29.75 "Hg (Apr 27, 11:53 PM)
Average63 °F63%29.92 "Hg
* Reported Apr 18 11:53 PM — May 3 11:53 PM, Aliso Viejo, Weather by CustomWeather, © 2016

Note: Actual official high and low records may vary slightly from our data, if they occured in-between our weather recording intervals... More about our weather records

Advertising

Aliso Viejo Weather History for the Previous 24 Hours

Scroll right to see more
 ConditionsComfort  
Time TempWeatherWind HumidityBarometerVisibility
11:53 PM
Tue, May 3
59 °FClear.No wind84%29.96 "Hg10 mi
10:53 PM59 °FPassing clouds.No wind84%29.96 "Hg10 mi
9:53 PM59 °FPassing clouds.No wind87%29.96 "Hg10 mi
9:04 PM59 °FPassing clouds.5 mph88%29.95 "Hg10 mi
8:53 PM59 °FPassing clouds.3 mph87%29.95 "Hg10 mi
8:04 PM61 °FScattered clouds.8 mph83%29.94 "Hg10 mi
7:53 PM60 °FBroken clouds.7 mph83%29.93 "Hg10 mi
6:53 PM62 °FPartly sunny.8 mph78%29.91 "Hg10 mi
5:53 PM64 °FBroken clouds.14 mph75%29.91 "Hg10 mi
4:53 PM67 °FPartly sunny.13 mph66%29.91 "Hg10 mi
3:53 PM69 °FPartly sunny.6 mph59%29.90 "Hg10 mi
2:53 PM68 °FPartly sunny.10 mph63%29.93 "Hg10 mi
1:53 PM73 °FPartly sunny.10 mph53%29.93 "Hg10 mi
12:53 PM72 °FPassing clouds.7 mph55%29.95 "Hg10 mi
11:53 AM71 °FPassing clouds.9 mph59%29.96 "Hg10 mi
10:53 AM69 °FPassing clouds.9 mph66%29.97 "Hg9 mi
9:53 AM68 °FPassing clouds.6 mph65%29.97 "Hg10 mi
8:53 AM63 °FScattered clouds.No wind75%29.97 "Hg7 mi
7:53 AM60 °FPartly sunny.No wind83%29.97 "Hg6 mi
6:53 AM59 °FPassing clouds.No wind87%29.97 "Hg7 mi
5:53 AM59 °FLow clouds.3 mph87%29.96 "Hg8 mi
4:53 AM58 °FPassing clouds.No wind90%29.95 "Hg8 mi
3:53 AM58 °FClear.3 mph90%29.95 "Hg8 mi
2:53 AM59 °FClear.No wind87%29.95 "Hg9 mi
1:53 AM59 °FPassing clouds.No wind87%29.97 "Hg9 mi
Weather by CustomWeather, © 2016

See weather overviewHow to use our weather pages